• Processing (Info)

  • MPEC 2001-F58 : 2001 FR127

    The following Minor Planet Electronic Circular may be linked-to from your own Web pages, but must not otherwise be redistributed electronically.

    A form allowing access to any MPEC is at the bottom of this page.


    Read MPEC 2001-F57 Read MPEC 2001-G01


    M.P.E.C. 2001-F58                                Issued 2001 Mar. 31, 19:03 UT
    
         The Minor Planet Electronic Circulars contain information on unusual
             minor planets and routine data on comets.  They are published
       on behalf of Commission 20 of the International Astronomical Union by the
              Minor Planet Center, Smithsonian Astrophysical Observatory,
                              Cambridge, MA 02138, U.S.A.
    
                 Prepared using the Tamkin Foundation Computer Network
    
                                  MPC@CFA.HARVARD.EDU
              URL http://cfa-www.harvard.edu/iau/mpc.html  ISSN 1523-6714
    
                                      2001 FR127
    
    Observations:
         K01FC7R* C2001 03 27.60381 13 10 11.61 -07 33 20.6          20.3        608
         K01FC7R  C2001 03 27.61479 13 10 11.06 -07 32 43.6          20.3        608
         K01FC7R  C2001 03 27.62641 13 10 10.43 -07 32 04.3          20.7        608
         K01FC7R  C2001 03 28.48875 13 09 29.97 -06 43 20.2                      422
         K01FC7R  C2001 03 28.49004 13 09 29.90 -06 43 15.6          19.5        422
         K01FC7R  C2001 03 28.49086 13 09 29.83 -06 43 12.4          19.4        422
         K01FC7R  C2001 03 28.49169 13 09 29.82 -06 43 10.1          19.2        422
         K01FC7R  C2001 03 28.99244 13 09 04.23 -06 15 20.3          17.8 R      046
         K01FC7R  C2001 03 28.99740 13 09 04.06 -06 15 03.1          17.5 R      046
         K01FC7R  C2001 03 29.01193 13 09 03.23 -06 14 14.5          17.5 R      046
         K01FC7R  C2001 03 29.01442 13 09 03.07 -06 14 05.4                      046
         K01FC7R  C2001 03 29.01521 13 09 02.95 -06 14 03.8          17.3 R      046
         K01FC7R  C2001 03 29.01622 13 09 02.91 -06 14 00.3                      046
         K01FC7R  C2001 03 29.32111 13 08 47.84 -05 56 44.1          20.0 R      711
         K01FC7R  C2001 03 29.32658 13 08 47.49 -05 56 25.4          19.7 R      711
         K01FC7R  C2001 03 29.39810 13 08 44.58 -05 52 21.5          19.5        608
         K01FC7R  C2001 03 29.40876 13 08 43.98 -05 51 45.6          19.8        608
         K01FC7R  C2001 03 29.41939 13 08 43.39 -05 51 09.6          19.3        608
         K01FC7R SC2001 03 29.96978 13 08 15.57 -05 20 10.6          17.8 R      046
         K01FC7R SC2001 03 29.97412 13 08 15.18 -05 19 56.8                      046
         K01FC7R  C2001 03 30.19841 13 08 04.41 -05 07 14.8          19.1        649
         K01FC7R  C2001 03 30.20096 13 08 04.28 -05 07 06.3          18.6        649
         K01FC7R  C2001 03 30.20392 13 08 04.10 -05 06 56.1          18.7        649
         K01FC7R  C2001 03 30.25575 13 08 01.22 -05 04 02.5          19.7 R      918
         K01FC7R  C2001 03 30.25866 13 08 01.02 -05 03 53.5                      918
         K01FC7R  C2001 03 30.26646 13 08 00.61 -05 03 26.5                      918
         K01FC7R  C2001 03 31.12215 13 07 17.18 -04 14 49.1          20.0        859
         K01FC7R  C2001 03 31.12457 13 07 16.95 -04 14 42.6          19.8        859
         K01FC7R  C2001 03 31.12877 13 07 16.64 -04 14 27.7          19.5        859
         K01FC7R  C2001 03 31.13348 13 07 16.37 -04 14 11.8          19.8        859
    
    Observer details:
    046 Klet.  Observers M. Tichy, M. Kocer.  0.57-m f/5.2 reflector + CCD.
    422 Loomberah.  Observer G. J. Garradd.  0.45-m f/5.4 reflector + CCD.
    608 Haleakala-NEAT/MSSS.  Observers E. F. Helin, S. Pravdo, K. Lawrence,
        P. Kervin, R. Maeda, J. Africano, M. Hicks.  1.2-m reflector + CCD.
    649 Powell Observatory, Louisburg.  Observer K. Smalley.  0.75-m Newtonian
        + CCD.
    711 McDonald Observatory.  Observer J. G. Ries.  0.76-m reflector + CCD.
    859 Wykrota Observatory-CEAMIG.  Observers C. Jacques, L. Duczmal,
        M. Breganhola.  Measurer C. Jacques.  0.3-m f/3.3 Schmidt-Cassegrain + CCD.
    918 Badlands Observatory, Quinn.  Observer R. Dyvig.  0.66-m f/4.8 reflector
        + CCD.
    
    Orbital elements:
    2001 FR127
    Epoch 2001 Mar. 12.0 TT = JDT 2451980.5                 Spahr
    M  63.84234              (2000.0)            P               Q
    n   0.53242765     Peri.  275.58185     -0.26291451     -0.96069957
    a   1.5076330      Node   190.97292     +0.96050473     -0.26934133
    e   0.1080595      Incl.   27.89842     -0.09114066     -0.06716837
    P   1.85           H   19.1           G   0.15
    From 30 observations 2001 Mar. 27-31.
    
    Ephemeris:
    2001 FR127               a,e,i = 1.51, 0.11, 28                  q = 1.3447
    Date    TT    R. A. (2000) Decl.     Delta      r     Elong.  Phase     V
    2001 03 22    13 14.38   -12 40.7    0.491    1.466   159.0    14.1    19.2
    2001 04 01    13 06.53   -03 25.5    0.484    1.481   173.7     4.2    18.8
    2001 04 11    12 58.08   +05 31.9    0.505    1.496   165.3     9.8    19.1
    2001 04 21    12 51.24   +12 50.8    0.553    1.511   150.7    19.0    19.7
    2001 05 01    12 47.57   +18 00.3    0.621    1.526   138.0    26.2    20.2
    2001 05 11    12 47.68   +21 11.4    0.702    1.541   127.4    31.4    20.6
    2001 05 21    12 51.40   +22 50.3    0.792    1.555   118.6    34.9    21.0
    2001 05 31    12 58.30   +23 21.2    0.887    1.569   111.1    37.1    21.3
    2001 06 10    13 07.84   +23 03.5    0.983    1.582   104.7    38.4    21.6
    2001 06 20    13 19.49   +22 10.7    1.079    1.595    99.1    39.0    21.8
    2001 06 30    13 32.90   +20 52.4    1.174    1.606    94.1    39.1    22.0
    
    Timothy B. Spahr             (C) Copyright 2001 MPC           M.P.E.C. 2001-F58
    

    Read MPEC 2001-F57 Read MPEC 2001-G01


    MPEC number:

    Enter an MPEC number in one of the following forms:

    • 1997-B01 (the full form)
    • J97B01 (the packed version of the full form)
    • B01 (the abbreviated form)